Wind_Speed
6 5 10 11 7 8 9 7 10 15 15 19 24 28 30 31 27 25 27 29 30 33 36 39 41 43 45 45 47 46 46 47 49 48 49 47 41 37 35 36 37 38 37
8 7 11 9 7 7 10 9 7 10 10 11 19 22 20 21 24 28 28 31 34 38 41 42 45 45 47 49 48 47 49 49 50 51 46 42 39 36 36 35 36 37 37
10 9 8 9 8 9 9 8 7 9 13 14 17 19 22 25 28 32 34 36 39 42 45 45 47 49 48 49 50 51 49 49 47 47 44 39 38 37 36 36 36 37 36
9 11 9 8 8 8 9 10 11 14 16 18 21 25 29 32 35 37 39 41 43 46 48 50 50 51 51 50 51 50 45 44 43 44 42 37 37 36 37 36 37 37 34
7 6 5 6 8 9 11 14 16 18 21 24 28 31 34 37 40 43 45 48 50 52 54 56 56 54 51 48 44 42 41 41 40 40 40 38 35 35 34 35 36 32 29
4 5 6 8 9 11 14 16 18 21 23 26 30 32 35 38 41 43 46 48 49 49 48 46 44 44 42 41 39 38 38 39 38 37 39 39 35 35 34 32 31 27 25
4 5 6 8 11 14 16 18 20 21 23 24 25 27 30 32 34 36 37 38 39 39 39 38 37 37 37 37 36 36 36 35 37 39 41 37 38 33 32 31 28 27 26
4 6 8 11 13 15 16 17 16 17 19 20 22 24 26 28 29 31 32 33 33 33 34 35 35 34 35 36 36 36 36 36 37 39 38 35 34 30 31 28 25 23 22
7 9 12 14 15 14 12 13 14 15 16 18 19 20 21 24 24 26 27 28 29 29 30 31 33 32 33 35 37 37 36 34 33 31 31 31 30 28 27 25 27 24 28
11 13 16 17 14 13 14 15 15 16 17 18 19 20 20 20 20 20 22 23 23 24 25 27 28 28 27 30 32 33 31 28 29 28 29 30 30 27 25 26 25 27 31
13 15 17 14 13 14 14 14 14 15 16 18 18 18 17 17 19 20 22 24 24 23 24 24 25 25 25 27 30 30 29 26 27 26 30 30 29 30 29 29 28 30 34
16 17 15 13 14 13 13 14 15 16 18 19 19 20 21 21 21 22 22 23 24 24 23 24 25 25 24 24 25 26 27 28 30 30 32 34 34 34 34 35 35 37 39
17 17 14 15 14 14 15 16 16 17 18 19 20 20 22 24 25 24 23 23 22 24 23 24 23 23 23 22 22 22 23 24 25 26 26 27 29 29 29 30 30 32 33
18 17 16 14 15 15 16 16 17 18 19 19 20 21 24 24 23 22 21 20 19 19 18 17 18 19 19 20 21 22 22 23 24 24 25 25 26 26 27 27 27 28 29
17 16 15 14 14 16 16 17 18 19 19 19 20 22 23 21 18 17 17 16 17 16 16 17 19 20 21 22 22 23 23 24 24 24 24 24 24 25 25 25 25 26 26
17 15 14 14 15 17 18 18 18 20 20 18 20 22 18 16 14 14 15 16 16 17 17 18 18 19 21 23 23 24 24 24 24 23 22 22 22 22 23 23 24 24 23
16 15 14 15 16 17 18 19 21 21 19 18 21 19 15 13 13 14 16 17 17 15 15 17 18 18 20 22 22 22 22 22 23 23 23 23 24 24 23 23 22 22 22
16 15 14 15 17 17 17 18 19 19 18 19 21 16 12 13 13 15 17 16 14 14 13 15 16 17 19 20 23 25 24 23 22 22 23 25 25 25 24 23 21 20 20
15 14 14 15 17 17 17 18 18 17 16 17 18 15 13 13 13 15 16 13 12 12 14 15 17 18 19 20 23 25 26 25 24 21 20 19 20 20 20 19 19 18 18
15 14 14 15 16 17 17 18 18 16 15 16 17 12 12 12 14 16 14 11 10 12 12 14 16 19 20 20 21 22 24 26 27 25 22 18 15 14 13 14 15 15 14
15 14 14 15 16 17 18 18 18 17 15 16 18 14 12 12 14 15 12 10 10 9 11 14 17 19 19 18 18 20 20 21 24 26 27 24 19 15 12 9 8 8 9
14 13 14 15 16 16 18 18 18 17 14 15 18 16 13 13 15 14 10 8 8 9 12 14 16 17 18 20 19 18 19 21 21 20 21 21 21 20 17 12 8 6 5
13 13 14 14 15 16 17 18 18 16 14 14 18 16 13 14 15 12 8 8 8 10 12 13 15 16 17 18 18 19 18 19 20 20 19 18 17 16 14 12 10 8 5
12 12 13 13 15 16 17 18 18 16 14 14 17 17 14 14 14 11 9 9 10 11 12 14 15 15 17 18 20 20 20 20 20 20 19 18 18 17 16 15 14 12 11
11 11 12 13 14 15 17 18 18 16 14 13 15 17 15 13 14 12 11 11 12 13 14 15 17 18 19 21 21 22 23 23 23 24 24 23 22 20 19 19 19 18 18
10 11 11 12 13 15 17 18 18 16 14 13 14 17 17 14 13 13 12 12 13 15 17 18 20 21 23 24 25 25 25 25 25 25 24 23 24 22 21 19 19 20 20
Wind_Direction
161 88 135 140 167 196 243 243 221 244 233 223 236 248 253 245 245 254 260 263 258 259 262 266 270 275 279 280 281 283 284 286 289 290 292 290 288 285 282 280 285 286 285
146 169 176 198 205 221 222 226 232 249 233 247 244 251 257 265 268 270 273 271 266 264 267 270 274 278 279 280 282 283 286 289 291 291 287 286 285 282 281 281 284 286 285
182 188 187 199 217 190 219 219 230 241 245 246 251 261 267 268 269 271 271 270 268 269 272 275 278 280 283 283 285 288 289 290 287 285 285 283 283 283 284 286 287 287 285
163 169 187 188 204 220 240 249 254 257 258 261 264 266 269 271 273 274 274 274 275 276 278 280 281 283 284 287 287 286 285 282 282 283 283 283 282 284 287 290 291 290 286
164 185 213 238 244 253 261 267 269 272 271 269 270 271 272 273 275 276 277 278 279 279 280 281 281 282 281 279 279 280 280 281 281 282 284 283 282 284 290 291 289 284 279
209 235 252 262 268 273 274 275 275 274 275 274 272 272 273 274 275 275 276 278 278 279 280 281 282 284 281 280 280 280 280 282 281 281 282 283 286 289 287 284 281 278 272
258 269 277 283 288 290 289 287 285 281 279 279 280 280 279 280 280 281 283 283 285 285 284 283 282 282 281 280 280 278 276 277 278 279 279 284 284 284 281 279 278 276 272
299 301 302 301 298 295 293 290 287 286 287 286 286 285 286 285 284 282 281 282 284 284 285 285 284 284 283 283 281 279 278 277 277 277 280 280 278 278 275 276 275 274 273
313 313 314 312 310 305 299 296 298 298 299 297 297 297 297 292 289 290 290 288 287 287 285 284 284 284 283 283 281 279 278 279 278 279 278 277 275 273 270 266 266 265 267
322 324 323 323 322 320 318 318 322 321 316 313 315 312 306 301 298 299 300 299 300 300 297 296 294 292 288 283 282 282 282 284 281 280 277 275 276 275 272 266 264 263 263
325 328 327 326 323 321 323 324 321 319 322 328 321 319 317 318 315 308 306 308 309 307 302 299 297 294 288 282 281 282 283 283 275 276 276 279 282 278 272 270 267 266 268
327 329 327 324 320 319 321 325 330 333 335 330 331 333 332 326 321 317 315 313 312 312 310 310 308 304 298 291 286 285 282 279 279 279 278 279 279 276 274 270 269 268 269
327 326 325 324 324 326 329 330 333 335 335 333 335 331 330 328 322 319 315 313 313 313 312 313 311 308 305 302 299 295 292 288 287 284 283 281 280 278 276 274 272 272 271
327 325 323 325 325 326 326 328 332 335 334 332 329 330 332 330 327 326 325 322 319 319 318 317 316 315 314 310 307 303 299 295 292 289 287 285 283 282 281 279 278 276 276
324 321 319 320 321 321 324 328 333 334 333 333 331 334 334 337 339 343 346 347 349 344 338 333 327 324 321 316 312 308 304 300 296 293 291 289 287 284 281 278 276 277 277
318 315 315 318 321 322 326 328 330 334 336 335 335 336 339 344 350 352 351 347 344 338 337 337 335 334 333 329 324 319 312 303 299 296 294 293 293 292 289 283 279 276 275
313 311 313 317 321 324 327 329 331 333 333 334 337 337 341 345 345 348 347 342 342 343 346 348 345 344 345 346 343 334 325 315 306 297 291 290 292 292 291 291 284 278 274
309 309 311 317 321 323 328 328 328 328 326 332 337 337 339 337 343 346 341 341 346 350 353 357 358 359 359 359 358 356 349 338 323 306 295 290 289 289 289 288 283 276 271
304 306 309 316 320 324 328 326 327 328 323 330 335 333 334 335 338 335 338 342 345 352 353 354 357 358 357 1 3 3 4 0 351 339 324 310 299 292 287 284 278 273 266
300 303 308 315 319 323 327 326 327 326 321 329 335 328 324 323 328 335 338 337 339 346 349 352 354 352 351 352 356 358 6 12 12 7 359 345 327 312 299 289 281 276 263
294 299 307 314 319 325 329 327 329 325 321 329 336 328 321 319 325 332 331 331 336 342 341 349 353 353 352 349 350 355 357 6 13 14 15 13 6 355 338 321 303 283 268
289 296 305 313 319 326 328 329 329 322 321 330 338 329 321 321 326 326 318 317 326 328 333 343 349 351 353 355 355 354 355 355 357 2 7 9 14 15 11 5 354 337 305
284 295 304 313 319 326 329 330 328 323 321 328 336 329 322 323 328 326 309 309 315 321 326 334 342 344 347 349 351 351 349 350 351 351 350 347 347 349 351 355 356 349 330
279 294 302 313 318 326 328 331 330 324 320 326 334 332 324 324 331 326 311 311 312 314 316 323 330 337 341 339 337 335 330 331 332 335 336 337 336 333 326 320 317 312 306
276 292 300 312 319 327 328 332 329 324 321 323 331 336 326 321 331 321 313 307 309 307 306 309 316 323 329 330 329 328 326 324 323 320 317 315 315 313 318 316 307 299 294
275 289 302 313 323 328 331 333 328 326 324 324 329 339 334 322 324 324 311 313 312 308 304 303 305 312 318 323 324 324 321 321 321 320 317 315 316 311 309 307 307 304 297
Height
3099 3100 3101 3101 3102 3102 3102 3103 3104 3104 3106 3108 3109 3109 3109 3111 3110 3110 3111 3110 3110 3109 3108 3107 3105 3102 3099 3096 3094 3091 3089 3086 3083 3082 3078 3074 3073 3070 3068 3067 3064 3060 3056
3099 3100 3100 3101 3102 3101 3100 3102 3103 3104 3105 3106 3107 3108 3107 3106 3107 3107 3105 3103 3102 3101 3099 3097 3094 3091 3088 3084 3081 3080 3078 3074 3072 3069 3067 3064 3062 3060 3058 3058 3056 3051 3047
3098 3099 3099 3100 3101 3100 3101 3101 3102 3103 3103 3104 3104 3104 3104 3103 3102 3100 3097 3095 3093 3091 3089 3086 3082 3078 3076 3073 3070 3068 3066 3062 3061 3057 3055 3055 3053 3050 3048 3048 3046 3041 3038
3099 3100 3100 3101 3100 3100 3100 3101 3100 3101 3101 3100 3100 3100 3098 3096 3093 3091 3088 3086 3083 3081 3077 3074 3071 3068 3064 3062 3058 3055 3054 3051 3049 3046 3044 3044 3043 3042 3039 3037 3034 3031 3029
3100 3099 3099 3099 3099 3098 3098 3098 3097 3097 3096 3095 3094 3092 3090 3087 3084 3082 3078 3075 3073 3070 3066 3063 3059 3056 3054 3050 3048 3045 3044 3041 3038 3036 3034 3033 3035 3033 3031 3027 3024 3023 3021
3099 3099 3098 3098 3097 3096 3095 3094 3093 3092 3090 3089 3087 3084 3082 3078 3076 3072 3069 3065 3063 3059 3054 3052 3048 3044 3042 3040 3038 3035 3034 3030 3029 3026 3024 3025 3025 3023 3021 3018 3016 3016 3015
3098 3097 3097 3096 3094 3093 3091 3089 3087 3086 3084 3081 3078 3076 3073 3069 3067 3063 3059 3055 3051 3048 3045 3042 3039 3036 3033 3030 3028 3026 3025 3023 3020 3018 3015 3017 3014 3014 3010 3009 3009 3007 3006
3095 3094 3093 3092 3090 3088 3086 3083 3081 3079 3077 3074 3071 3069 3065 3062 3058 3055 3051 3047 3044 3040 3036 3033 3029 3027 3024 3020 3018 3016 3015 3014 3011 3008 3007 3006 3005 3005 3003 3002 3001 2999 2998
3092 3091 3089 3087 3085 3082 3080 3078 3076 3074 3070 3067 3064 3061 3057 3053 3050 3045 3042 3038 3035 3032 3029 3025 3021 3019 3016 3012 3008 3007 3006 3004 3002 3000 2997 2996 2996 2995 2995 2995 2993 2992 2990
3088 3086 3084 3081 3078 3075 3073 3071 3068 3065 3062 3059 3056 3053 3049 3046 3041 3038 3034 3030 3027 3023 3019 3014 3011 3009 3007 3004 3000 2997 2997 2996 2993 2991 2988 2987 2987 2987 2986 2984 2984 2982 2982
3084 3082 3079 3076 3074 3072 3069 3067 3064 3061 3057 3053 3050 3047 3044 3039 3034 3031 3027 3022 3019 3016 3012 3008 3005 3002 3000 2997 2993 2990 2989 2987 2985 2983 2980 2979 2978 2977 2977 2976 2976 2975 2973
3081 3078 3076 3073 3071 3069 3066 3063 3059 3055 3051 3048 3043 3039 3035 3032 3028 3024 3019 3016 3011 3008 3004 3000 2997 2994 2992 2989 2986 2983 2981 2978 2975 2974 2972 2971 2968 2967 2966 2966 2965 2964 2963
3078 3075 3072 3070 3067 3064 3061 3058 3054 3050 3046 3042 3038 3035 3030 3025 3021 3017 3013 3009 3006 3001 2998 2995 2991 2988 2985 2982 2979 2976 2973 2970 2968 2966 2964 2962 2960 2958 2956 2955 2954 2953 2952
3074 3071 3068 3065 3063 3060 3057 3054 3050 3046 3042 3039 3035 3031 3025 3020 3016 3011 3007 3004 3000 2997 2994 2991 2987 2984 2981 2977 2973 2970 2967 2964 2961 2958 2956 2954 2952 2950 2948 2946 2945 2943 2942
3070 3067 3065 3063 3060 3058 3054 3050 3046 3043 3039 3035 3031 3026 3022 3017 3012 3008 3004 3001 2997 2995 2991 2987 2984 2980 2976 2972 2969 2965 2961 2958 2954 2951 2949 2947 2944 2942 2941 2939 2938 2936 2934
3067 3064 3062 3059 3056 3053 3050 3047 3043 3039 3035 3031 3027 3023 3018 3014 3010 3007 3003 2999 2996 2993 2989 2985 2981 2977 2973 2968 2964 2959 2955 2951 2948 2945 2942 2940 2938 2936 2934 2932 2930 2929 2928
3063 3061 3058 3056 3053 3050 3046 3042 3036 3033 3030 3028 3023 3019 3014 3011 3009 3005 3001 2998 2994 2991 2987 2983 2980 2975 2971 2966 2960 2955 2950 2945 2941 2938 2935 2933 2931 2929 2926 2924 2923 2921 2921
3059 3057 3054 3052 3049 3046 3043 3039 3035 3031 3027 3023 3019 3015 3012 3009 3006 3002 2999 2995 2992 2989 2986 2982 2978 2974 2969 2964 2958 2952 2946 2940 2935 2931 2928 2926 2923 2921 2919 2918 2916 2915 2914
3055 3053 3051 3048 3046 3042 3039 3036 3032 3028 3024 3021 3016 3012 3009 3006 3003 3000 2996 2993 2990 2987 2984 2980 2976 2971 2967 2962 2957 2952 2945 2939 2932 2927 2923 2919 2916 2914 2913 2911 2910 2910 2909
3051 3049 3047 3044 3042 3039 3035 3032 3028 3024 3022 3018 3013 3010 3007 3004 3000 2997 2993 2991 2988 2985 2982 2978 2974 2970 2965 2961 2956 2951 2946 2939 2933 2927 2921 2916 2913 2910 2908 2907 2906 2905 2905
3047 3045 3043 3041 3038 3035 3031 3028 3024 3021 3018 3014 3010 3006 3003 3001 2997 2994 2990 2988 2986 2983 2980 2976 2972 2968 2964 2959 2955 2951 2946 2940 2935 2929 2924 2918 2913 2909 2907 2904 2903 2902 2902
3043 3041 3039 3037 3034 3031 3027 3023 3020 3017 3014 3010 3006 3003 3000 2997 2993 2990 2987 2985 2983 2980 2978 2975 2970 2966 2962 2958 2954 2949 2945 2941 2936 2931 2926 2922 2917 2913 2909 2906 2904 2903 2902
3039 3037 3035 3033 3030 3027 3023 3020 3016 3013 3010 3006 3003 3000 2996 2993 2990 2986 2984 2982 2980 2978 2975 2972 2968 2964 2960 2956 2952 2949 2944 2940 2935 2930 2926 2923 2919 2916 2913 2910 2907 2905 2904
3034 3033 3032 3029 3026 3023 3020 3017 3013 3010 3006 3003 3000 2996 2993 2990 2986 2983 2981 2979 2977 2974 2972 2969 2966 2962 2958 2954 2950 2947 2942 2937 2933 2928 2924 2921 2917 2914 2912 2909 2907 2905 2903
3031 3030 3028 3026 3023 3020 3017 3013 3010 3006 3003 3000 2997 2993 2990 2987 2983 2981 2978 2976 2973 2971 2968 2965 2962 2959 2955 2951 2947 2943 2938 2934 2929 2925 2921 2917 2914 2911 2908 2906 2903 2901 2899
3027 3026 3025 3023 3020 3017 3014 3010 3007 3003 3000 2997 2994 2990 2987 2984 2980 2978 2975 2972 2969 2967 2964 2961 2958 2955 2951 2947 2942 2938 2933 2929 2925 2920 2916 2911 2908 2905 2902 2900 2897 2894 2892